FW7665 Weather Reports


time (UTC)temp
C
wind
direction
speed
KPH
gust
KPH
rain 1hr
cm
rain 24hr
cm
rain mn
cm
humidity
%
barometer
mb
20230131221803 -5 100 1.6 11.3 0.00 0.00 0.00 36 1012.5
20230131220924 -4 219 0.0 3.2 0.00 0.00 0.00 37 1012.5
20230131220004 -4 224 0.0 17.7 0.00 0.00 0.00 37 1012.5
20230131215403 -4 238 1.6 14.5 0.00 0.00 0.00 36 1012.0
20230131214503 -4 102 0.0 3.2 0.00 0.00 0.00 36 1012.0
20230131213603 -4 67 1.6 8.0 0.00 0.00 0.00 35 1012.0
20230131212703 -4 24 3.2 20.9 0.00 0.00 0.00 30 1012.0
20230131211803 -3 341 3.2 14.5 0.00 0.00 0.00 31 1012.0
20230131210903 -3 124 1.6 6.4 0.00 0.00 0.00 33 1012.0
20230131210003 -3 29 1.6 19.3 0.00 0.00 0.00 34 1012.0
20230131205424 -3 87 3.2 14.5 0.00 0.00 0.00 31 1012.3
20230131204524 -3 90 4.8 12.9 0.00 0.00 0.00 29 1012.3
20230131203603 -3 9 6.4 19.3 0.00 0.00 0.00 27 1012.3
20230131202703 -3 43 3.2 11.3 0.00 0.00 0.00 32 1012.3
20230131201803 -3 22 3.2 16.1 0.00 0.00 0.00 29 1012.3
20230131200903 -3 351 6.4 22.5 0.00 0.00 0.00 28 1012.3
20230131200003 -3 25 4.8 20.9 0.00 0.00 0.00 28 1012.3
20230131195403 -3 20 6.4 24.1 0.00 0.00 0.00 26 1012.7
20230131194524 -3 356 6.4 24.1 0.00 0.00 0.00 25 1012.7
20230131193625 -3 63 3.2 20.9 0.00 0.00 0.00 26 1012.7
20230131192703 -3 67 4.8 20.9 0.00 0.00 0.00 26 1012.7
20230131191803 -3 16 6.4 24.1 0.00 0.00 0.00 25 1012.7
20230131190903 -3 50 4.8 19.3 0.00 0.00 0.00 27 1012.7
20230131190004 -3 27 6.4 17.7 0.00 0.00 0.00 25 1012.7
20230131185403 -3 25 6.4 20.9 0.00 0.00 0.00 25 1012.0
20230131184503 -3 31 4.8 20.9 0.00 0.00 0.00 26 1012.0
20230131183603 -3 39 4.8 19.3 0.00 0.00 0.00 25 1012.0
20230131182703 -3 30 4.8 19.3 0.00 0.00 0.00 25 1012.0
20230131181804 -3 57 3.2 11.3 0.00 0.00 0.00 27 1012.0
20230131180903 -4 31 1.6 9.7 0.00 0.00 0.00 24 1012.0
20230131180003 -5 354 1.6 6.4 0.00 0.00 0.00 30 1012.0
20230131175403 -5 21 1.6 8.0 0.00 0.00 0.00 26 1012.0
20230131174503 -5 51 4.8 12.9 0.00 0.00 0.00 26 1012.0
20230131173603 -5 17 4.8 19.3 0.00 0.00 0.00 24 1012.0
20230131172703 -5 14 3.2 20.9 0.00 0.00 0.00 25 1012.0
20230131171803 -5 13 4.8 24.1 0.00 0.00 0.00 27 1012.0
20230131170904 -5 61 3.2 14.5 0.00 0.00 0.00 30 1012.0
20230131170004 -5 42 3.2 19.3 0.00 0.00 0.00 30 1012.0
20230131165403 -6 339 3.2 22.5 0.00 0.00 0.00 28 1012.0
20230131164503 -6 352 3.2 11.3 0.00 0.00 0.00 29 1012.0
20230131163624 -7 41 3.2 16.1 0.00 0.00 0.00 31 1012.0
20230131162724 -7 59 4.8 11.3 0.00 0.00 0.00 33 1012.0
20230131161824 -8 70 3.2 11.3 0.00 0.00 0.00 34 1012.0
20230131160922 -9 42 6.4 16.1 0.00 0.00 0.00 36 1012.0
20230131160001 -10 63 3.2 12.9 0.00 0.00 0.00 40 1012.0
20230131155401 -11 81 1.6 6.4 0.00 0.00 0.00 48 1012.0
20230131154503 -11 91 1.6 9.7 0.00 0.00 0.00 55 1012.0
20230131153602 -11 90 0.0 6.4 0.00 0.00 0.00 53 1012.0
20230131152702 -12 98 1.6 9.7 0.00 0.00 0.00 56 1012.0
20230131151801 -12 105 1.6 6.4 0.00 0.00 0.00 53 1012.0
20230131150901 -12 161 3.2 11.3 0.00 0.00 0.00 50 1012.0
20230131150022 -12 104 3.2 11.3 0.00 0.00 0.00 51 1012.0
20230131145401 -11 135 1.6 11.3 0.00 0.00 0.00 46 1012.0
20230131144501 -11 136 1.6 11.3 0.00 0.00 0.00 46 1012.0
20230131143601 -11 226 4.8 20.9 0.00 0.00 0.00 42 1012.0
20230131142722 -11 244 8.0 29.0 0.00 0.00 0.00 41 1012.0
20230131141801 -11 233 9.7 20.9 0.00 0.00 0.00 49 1012.0
20230131140901 -12 237 9.7 17.7 0.00 0.00 0.00 49 1012.0
20230131140002 -13 239 4.8 17.7 0.00 0.00 0.00 57 1012.0
20230131135423 -13 249 3.2 12.9 0.00 0.00 0.00 59 1011.6
20230131134501 -13 242 4.8 11.3 0.00 0.00 0.00 58 1011.6
20230131133601 -13 263 3.2 14.5 0.00 0.00 0.00 59 1011.6
20230131132701 -13 202 0.0 1.6 0.00 0.00 0.00 69 1011.6
20230131131801 -13 202 0.0 4.8 0.00 0.00 0.00 66 1011.6
20230131130902 -13 217 1.6 6.4 0.00 0.00 0.00 64 1011.6
20230131130023 -13 216 3.2 11.3 0.00 0.00 0.00 62 1011.6
20230131125423 -13 232 3.2 14.5 0.00 0.00 0.00 61 1011.3
20230131124502 -13 248 4.8 17.7 0.00 0.00 0.00 64 1011.3
20230131123601 -13 236 4.8 14.5 0.00 0.00 0.00 72 1011.3
20230131122701 -15 237 6.4 14.5 0.00 0.00 0.00 80 1011.3
20230131121823 -17 199 0.0 11.3 0.00 0.00 0.00 83 1011.3
20230131120902 -17 0 0.0 0.0 0.00 0.00 0.00 82 1011.3
20230131120003 -18 0 0.0 0.0 0.00 0.00 0.00 82 1011.3
20230131115401 -18 0 0.0 0.0 0.00 0.00 0.00 82 1011.7
20230131114523 -18 0 0.0 0.0 0.00 0.00 0.00 82 1011.7
20230131113601 -18 0 0.0 0.0 0.00 0.00 0.00 82 1011.7
20230131112702 -18 0 0.0 0.0 0.00 0.00 0.00 81 1011.7
20230131111802 -18 0 0.0 0.0 0.00 0.00 0.00 81 1011.7
20230131110901 -18 0 0.0 0.0 0.00 0.00 0.00 81 1011.7
20230131110002 -18 0 0.0 0.0 0.00 0.00 0.00 81 1011.7
20230131105401 -18 0 0.0 0.0 0.00 0.00 0.00 81 1011.9
20230131104501 -18 0 0.0 0.0 0.00 0.00 0.00 80 1011.9
20230131103602 -18 0 0.0 0.0 0.00 0.00 0.00 80 1011.9
20230131102702 -18 0 0.0 0.0 0.00 0.00 0.00 80 1011.9
20230131101802 -18 0 0.0 0.0 0.00 0.00 0.00 80 1011.9
20230131100902 -18 0 0.0 0.0 0.00 0.00 0.00 80 1011.9
20230131100023 -18 0 0.0 0.0 0.00 0.00 0.00 80 1011.9
20230131095402 -18 0 0.0 0.0 0.00 0.00 0.00 79 1011.7
20230131094502 -17 0 0.0 0.0 0.00 0.00 0.00 79 1011.7
20230131093602 -17 0 0.0 0.0 0.00 0.00 0.00 79 1011.7
20230131092702 -17 0 0.0 0.0 0.00 0.00 0.00 80 1011.7
20230131091802 -17 0 0.0 0.0 0.00 0.00 0.00 81 1011.7
20230131090923 -17 0 0.0 0.0 0.00 0.00 0.00 81 1011.7
20230131090023 -17 0 0.0 0.0 0.00 0.00 0.00 81 1011.7
20230131085402 -17 0 0.0 0.0 0.00 0.00 0.00 81 1011.7
20230131084502 -17 0 0.0 0.0 0.00 0.00 0.00 80 1011.7
20230131083602 -17 0 0.0 0.0 0.00 0.00 0.00 80 1011.7
20230131082702 -17 0 0.0 0.0 0.00 0.00 0.00 80 1011.7
20230131081801 -16 0 0.0 0.0 0.00 0.00 0.00 80 1011.7
20230131080902 -16 0 0.0 0.0 0.00 0.00 0.00 79 1011.6
20230131080002 -16 0 0.0 0.0 0.00 0.00 0.00 79 1011.6
20230131075402 -16 0 0.0 0.0 0.00 0.00 0.00 79 1011.4
20230131074502 -16 0 0.0 0.0 0.00 0.00 0.00 80 1011.4
20230131073602 -16 0 0.0 0.0 0.00 0.00 0.00 80 1011.4
20230131072702 -15 0 0.0 0.0 0.00 0.00 0.00 81 1011.4
20230131071802 -15 0 0.0 0.0 0.00 0.00 0.00 81 1011.4
20230131070902 -15 0 0.0 0.0 0.00 0.00 0.00 81 1011.4
20230131070012 -15 0 0.0 0.0 0.00 0.00 0.00 82 1011.4
20230131065402 -15 0 0.0 0.0 0.00 0.00 0.00 82 1011.9
20230131064524 -15 0 0.0 0.0 0.00 0.00 0.00 82 1011.9
20230131063602 -15 0 0.0 0.0 0.00 0.00 0.00 81 1011.9
20230131062703 -15 0 0.0 0.0 0.00 0.00 0.00 81 1011.9
20230131061802 -15 0 0.0 0.0 0.00 0.00 0.00 80 1011.9
20230131060902 -14 0 0.0 0.0 0.00 0.00 0.00 81 1011.9
20230131060002 -14 0 0.0 0.0 0.00 0.00 0.00 81 1011.9
20230131055402 -14 0 0.0 0.0 0.00 0.00 0.00 82 1011.7
20230131054502 -14 0 0.0 0.0 0.00 0.00 0.00 82 1011.7
20230131053602 -14 0 0.0 0.0 0.00 0.00 0.00 82 1011.7
20230131052702 -14 0 0.0 0.0 0.00 0.00 0.00 82 1011.7
20230131051802 -15 0 0.0 0.0 0.00 0.00 0.00 81 1011.7
20230131050902 -14 0 0.0 0.0 0.00 0.00 0.00 81 1011.7
20230131050002 -14 0 0.0 0.0 0.00 0.00 0.00 80 1011.7
20230131045402 -14 0 0.0 0.0 0.00 0.00 0.00 80 1011.5
20230131044502 -14 0 0.0 0.0 0.00 0.00 0.00 80 1011.5
20230131043623 -13 0 0.0 0.0 0.00 0.00 0.00 80 1011.5
20230131042702 -13 0 0.0 0.0 0.00 0.00 0.00 80 1011.5
20230131041802 -13 0 0.0 0.0 0.00 0.00 0.00 81 1011.5
20230131040902 -13 0 0.0 0.0 0.00 0.00 0.00 81 1011.5
20230131040002 -13 0 0.0 0.0 0.00 0.00 0.00 81 1011.5
20230131035402 -13 0 0.0 0.0 0.00 0.00 0.00 81 1011.1
20230131034502 -13 0 0.0 0.0 0.00 0.00 0.00 81 1011.1
20230131033602 -13 0 0.0 0.0 0.00 0.00 0.00 80 1011.1
20230131032702 -13 0 0.0 0.0 0.00 0.00 0.00 80 1011.1
20230131031823 -13 0 0.0 0.0 0.00 0.00 0.00 80 1011.1
20230131030902 -13 0 0.0 0.0 0.00 0.00 0.00 80 1011.1
20230131030002 -13 0 0.0 0.0 0.00 0.00 0.00 80 1011.1
20230131025402 -13 0 0.0 0.0 0.00 0.00 0.00 79 1011.0
20230131024523 -13 0 0.0 0.0 0.00 0.00 0.00 79 1011.0
20230131023623 -13 0 0.0 0.0 0.00 0.00 0.00 79 1011.0
20230131022702 -12 0 0.0 0.0 0.00 0.00 0.00 79 1011.0
20230131021802 -12 0 0.0 0.0 0.00 0.00 0.00 79 1011.0
20230131020902 -12 0 0.0 0.0 0.00 0.00 0.00 79 1010.7
20230131020002 -12 0 0.0 0.0 0.00 0.00 0.00 79 1010.7
20230131015402 -12 0 0.0 0.0 0.00 0.00 0.00 79 1010.2
20230131014502 -12 0 0.0 0.0 0.00 0.00 0.00 80 1010.2
20230131013602 -11 0 0.0 0.0 0.00 0.00 0.00 80 1010.2
20230131012702 -11 0 0.0 0.0 0.00 0.00 0.00 80 1010.2
20230131011823 -11 0 0.0 0.0 0.00 0.00 0.00 80 1010.2
20230131010902 -11 0 0.0 0.0 0.00 0.00 0.00 80 1010.0
20230131010002 -11 0 0.0 0.0 0.00 0.00 0.00 80 1010.0
20230131005402 -11 0 0.0 0.0 0.00 0.00 0.00 80 1009.4
20230131004502 -11 0 0.0 0.0 0.00 0.00 0.00 79 1009.4
20230131003602 -11 0 0.0 0.0 0.00 0.00 0.00 79 1009.4
20230131002702 -10 0 0.0 0.0 0.00 0.00 0.00 78 1009.4
20230131001823 -10 0 0.0 0.0 0.00 0.00 0.00 78 1009.4
20230131000902 -10 0 0.0 0.0 0.00 0.00 0.00 78 1009.4
20230131000002 -10 0 0.0 0.0 0.00 0.00 0.00 78 1009.4
20230130235423 -10 0 0.0 0.0 0.00 0.00 0.00 78 1007.5
20230130234502 -10 0 0.0 0.0 0.00 0.00 0.00 77 1007.5
20230130233623 -10 0 0.0 0.0 0.00 0.00 0.00 77 1007.5
20230130232702 -9 0 0.0 0.0 0.00 0.00 0.00 76 1007.5
20230130231802 -9 0 0.0 0.0 0.00 0.00 0.00 76 1007.5
20230130230902 -9 0 0.0 0.0 0.00 0.00 0.00 76 1007.5
20230130230002 -9 0 0.0 0.0 0.00 0.00 0.00 75 1007.5
20230130225402 -9 0 0.0 0.0 0.00 0.00 0.00 75 1007.5
20230130224502 -8 0 0.0 0.0 0.00 0.00 0.00 74 1007.5
20230130223602 -8 0 0.0 0.0 0.00 0.00 0.00 74 1007.5
20230130222723 -8 0 0.0 0.0 0.00 0.00 0.00 73 1007.5